Flag for Norway Weather past 2 weeks in Vadsø, Norway

Now
54 °F

Clear.


Feels Like: 52 °F
Forecast: 50 / 58 °F
Wind: 6 mph from North

Location: Vadso

Current Time: Sep 2, 2014 at 7:41:25 PM

Latest Report: Sep 2, 2014 at 6:50 PM


Visibility: 10 mi

Pressure: 29.92 "Hg

Humidity: 82%

Dew point: 48 °F

Location of VadsøLocation

Historic Weather in Vadsø — Graph

°F

Vadsø temperature yesterday

Maximum temperature yesterday: 59 °F (at 3:50 PM)
Minimum temperature yesterday: 36 °F (at 4:50 AM)
Average temperature yesterday: 50 °F

Past Weeks' High & Low Weather Summary

 TemperatureHumidityPressure
High59 °F (Sep 1, 3:50 PM)100% (Aug 19, 8:50 PM)30.15 "Hg (Aug 19, 8:50 PM)
Low36 °F (Aug 31, 11:50 PM)59% (Aug 24, 2:50 PM)29.33 "Hg (Aug 20, 7:50 AM)
Average50 °F85%29.85 "Hg
* Reported Aug 18 5:50 PM — Sep 2 5:50 PM, Vadsø, Weather by CustomWeather, © 2014

Note: Actual official high and low records may vary slightly from our data, if they occured in-between our weather recording intervals... More about our weather records

Advertising

Vadsø weather history for previous 24 hours

 ConditionsComfort  
Time TempWeatherWind HumidityBarometerVisibility
5:50 PM
Sep 2
55 °FSunny.5 mph82%29.92 "Hg10 mi
4:50 PM55 °FSunny.6 mph77%29.95 "Hg10 mi
3:50 PM55 °FSunny.6 mph77%29.95 "Hg10 mi
2:50 PM55 °FSunny.8 mph77%29.98 "Hg10 mi
1:50 PM54 °FSunny.8 mph88%29.98 "Hg10 mi
12:50 PM54 °FPassing clouds.6 mph88%29.98 "HgN/A
11:50 AM54 °FScattered clouds.7 mph82%29.98 "HgN/A
10:50 AM54 °FScattered clouds.5 mph82%29.98 "HgN/A
9:50 AM52 °FPartly sunny.3 mph88%29.98 "HgN/A
8:50 AM54 °FPartly sunny.5 mph82%29.98 "HgN/A
7:50 AM52 °FSunny.3 mph82%29.98 "Hg10 mi
6:50 AM48 °FSunny.2 mph94%29.98 "Hg10 mi
5:50 AM48 °FScattered showers. Partly sunny.6 mph87%29.98 "HgN/A
5:20 AM48 °FSprinkles. Partly sunny.5 mph94%29.98 "HgN/A
4:50 AM46 °FSprinkles. Partly sunny.1 mph93%29.98 "HgN/A
12:20 AM43 °FClear.3 mph93%29.95 "Hg10 mi
10:50 PM
Sep 1
46 °FClear.3 mph87%29.95 "Hg10 mi
8:50 PM46 °FClear.2 mph87%29.98 "Hg10 mi
7:50 PM52 °FClear.8 mph77%29.98 "Hg10 mi
Weather by CustomWeather, © 2014

See weather overviewHow to use our weather pages